Time,TemperatureF,DewpointF,PressureIn,WindDirection,WindDirectionDegrees,WindSpeedMPH,WindSpeedGustMPH,Humidity,HourlyPrecipIn,Conditions,Clouds,dailyrainin,SoftwareType,DateUTC
2013-07-14 00:02:00,76.0,69.0,30.26,SSW,198,0.0,0.0,79,0.00,,,0.08,,2013-07-14 04:02:00,
2013-07-14 00:11:00,76.0,69.0,30.26,SSW,198,0.0,0.0,79,0.00,,,0.08,,2013-07-14 04:11:00,
2013-07-14 00:22:00,75.0,68.0,30.27,SSW,198,0.0,0.0,79,0.00,,,0.08,,2013-07-14 04:22:00,
2013-07-14 00:32:00,75.0,68.0,30.27,SSW,198,0.0,0.0,79,0.00,,,0.08,,2013-07-14 04:32:00,
2013-07-14 00:42:00,75.0,68.0,30.27,SSW,198,0.0,0.0,79,0.00,,,0.08,,2013-07-14 04:42:00,
2013-07-14 00:53:00,74.0,67.0,30.27,SSW,198,0.0,0.0,80,0.00,,,0.08,,2013-07-14 04:53:00,
2013-07-14 01:02:00,74.0,68.0,30.27,SSW,198,0.0,0.0,81,0.00,,,0.08,,2013-07-14 05:02:00,
2013-07-14 01:23:00,74.0,68.0,30.27,SSW,198,0.0,1.0,82,0.00,,,0.08,,2013-07-14 05:23:00,
2013-07-14 01:32:00,74.0,68.0,30.26,SSW,198,0.0,0.0,82,0.00,,,0.08,,2013-07-14 05:32:00,
2013-07-14 01:43:00,74.0,68.0,30.26,SSW,198,0.0,0.0,82,0.00,,,0.08,,2013-07-14 05:43:00,
2013-07-14 01:53:00,74.0,68.0,30.26,SSW,198,0.0,0.0,82,0.00,,,0.08,,2013-07-14 05:53:00,
2013-07-14 02:01:00,73.0,67.0,30.26,SSW,198,0.0,0.0,81,0.00,,,0.08,,2013-07-14 06:01:00,
2013-07-14 02:12:00,73.0,67.0,30.26,SSW,198,0.0,1.0,82,0.00,,,0.05,,2013-07-14 06:12:00,
2013-07-14 02:22:00,73.0,67.0,30.26,SSW,198,0.0,1.0,82,0.00,,,0.05,,2013-07-14 06:22:00,
2013-07-14 02:32:00,73.0,68.0,30.27,SSW,198,0.0,0.0,83,0.00,,,0.05,,2013-07-14 06:32:00,
2013-07-14 02:42:00,73.0,68.0,30.27,SSW,198,0.0,0.0,83,0.00,,,0.05,,2013-07-14 06:42:00,
2013-07-14 02:53:00,73.0,68.0,30.27,SSW,198,0.0,0.0,83,0.00,,,0.05,,2013-07-14 06:53:00,
2013-07-14 03:02:00,73.0,68.0,30.27,SSW,198,0.0,0.0,83,0.00,,,0.05,,2013-07-14 07:02:00,
2013-07-14 03:22:00,74.0,68.0,30.27,SSW,198,0.0,0.0,83,0.00,,,0.02,,2013-07-14 07:22:00,
2013-07-14 03:33:00,74.0,68.0,30.27,SSW,198,0.0,0.0,83,0.00,,,0.02,,2013-07-14 07:33:00,
2013-07-14 03:43:00,74.0,68.0,30.27,SSW,198,0.0,0.0,83,0.00,,,0.02,,2013-07-14 07:43:00,
2013-07-14 03:53:00,74.0,68.0,30.27,SSW,198,0.0,0.0,83,0.00,,,0.02,,2013-07-14 07:53:00,
2013-07-14 04:01:00,74.0,68.0,30.27,SSW,198,0.0,0.0,83,0.00,,,0.02,,2013-07-14 08:01:00,
2013-07-14 04:22:00,74.0,69.0,30.27,SSW,198,0.0,2.0,84,0.00,,,0.00,,2013-07-14 08:22:00,
2013-07-14 04:32:00,75.0,70.0,30.27,SSW,198,0.0,2.0,84,0.00,,,0.00,,2013-07-14 08:32:00,
2013-07-14 04:42:00,75.0,70.0,30.27,SSW,198,0.0,3.0,84,0.00,,,0.00,,2013-07-14 08:42:00,
2013-07-14 04:53:00,75.0,70.0,30.28,SSW,198,2.0,5.0,84,0.00,,,0.00,,2013-07-14 08:53:00,
2013-07-14 05:01:00,75.0,70.0,30.28,SSW,198,2.0,5.0,84,0.00,,,0.00,,2013-07-14 09:01:00,
2013-07-14 05:11:00,75.0,70.0,30.28,SSW,198,2.0,5.0,84,0.00,,,0.00,,2013-07-14 09:11:00,
2013-07-14 05:22:00,75.0,70.0,30.28,SSW,198,2.0,5.0,84,0.00,,,0.00,,2013-07-14 09:22:00,
2013-07-14 05:32:00,75.0,69.0,30.29,SSW,198,2.0,4.0,83,0.00,,,0.00,,2013-07-14 09:32:00,
2013-07-14 05:42:00,74.0,68.0,30.29,SSW,198,1.0,3.0,83,0.00,,,0.00,,2013-07-14 09:42:00,
2013-07-14 05:52:00,74.0,69.0,30.29,SSW,198,2.0,4.0,84,0.00,,,0.00,,2013-07-14 09:52:00,
2013-07-14 06:01:00,74.0,69.0,30.29,South,184,2.0,4.0,84,0.00,,,0.00,,2013-07-14 10:01:00,
2013-07-14 06:12:00,74.0,69.0,30.29,South,184,1.0,4.0,84,0.00,,,0.00,,2013-07-14 10:12:00,
2013-07-14 06:22:00,74.0,69.0,30.29,South,184,1.0,4.0,84,0.00,,,0.00,,2013-07-14 10:22:00,
2013-07-14 06:32:00,74.0,69.0,30.29,South,184,1.0,3.0,84,0.00,,,0.00,,2013-07-14 10:32:00,
2013-07-14 06:42:00,74.0,69.0,30.29,South,184,1.0,3.0,84,0.00,,,0.00,,2013-07-14 10:42:00,
2013-07-14 06:53:00,74.0,69.0,30.29,South,184,1.0,4.0,84,0.00,,,0.00,,2013-07-14 10:53:00,
2013-07-14 07:02:00,74.0,69.0,30.30,South,184,0.0,3.0,84,0.00,,,0.00,,2013-07-14 11:02:00,
2013-07-14 07:11:00,74.0,69.0,30.30,South,184,2.0,3.0,84,0.00,,,0.00,,2013-07-14 11:11:00,
2013-07-14 07:22:00,74.0,69.0,30.30,South,184,0.0,2.0,84,0.00,,,0.00,,2013-07-14 11:22:00,
2013-07-14 07:32:00,74.0,69.0,30.30,South,184,0.0,2.0,84,0.00,,,0.00,,2013-07-14 11:32:00,
2013-07-14 07:43:00,74.0,69.0,30.30,South,184,0.0,3.0,84,0.00,,,0.00,,2013-07-14 11:43:00,
2013-07-14 07:53:00,75.0,70.0,30.31,South,184,1.0,3.0,84,0.00,,,0.00,,2013-07-14 11:53:00,
2013-07-14 08:02:00,75.0,70.0,30.31,SW,227,2.0,4.0,84,0.00,,,0.00,,2013-07-14 12:02:00,
2013-07-14 08:12:00,75.0,70.0,30.31,SW,227,0.0,2.0,84,0.00,,,0.00,,2013-07-14 12:12:00,
2013-07-14 08:22:00,75.0,70.0,30.32,SW,227,1.0,3.0,84,0.00,,,0.00,,2013-07-14 12:22:00,
2013-07-14 08:33:00,75.0,70.0,30.32,WSW,240,0.0,1.0,84,0.00,,,0.00,,2013-07-14 12:33:00,
2013-07-14 08:52:00,76.0,70.0,30.32,WSW,242,0.0,1.0,83,0.00,,,0.00,,2013-07-14 12:52:00,
2013-07-14 09:01:00,77.0,71.0,30.32,WSW,242,0.0,0.0,83,0.00,,,0.00,,2013-07-14 13:01:00,
2013-07-14 09:11:00,77.0,71.0,30.32,WSW,242,0.0,1.0,82,0.00,,,0.00,,2013-07-14 13:11:00,
2013-07-14 09:32:00,79.0,71.0,30.33,SSW,213,3.0,7.0,77,0.00,,,0.00,,2013-07-14 13:32:00,
2013-07-14 09:42:00,79.0,70.0,30.33,SSW,201,5.0,7.0,75,0.00,,,0.00,,2013-07-14 13:42:00,
2013-07-14 09:53:00,80.0,71.0,30.33,SSW,211,4.0,7.0,75,0.00,,,0.00,,2013-07-14 13:53:00,
2013-07-14 10:02:00,80.0,71.0,30.33,SSW,207,2.0,7.0,73,0.00,,,0.00,,2013-07-14 14:02:00,
2013-07-14 10:11:00,81.0,71.0,30.33,SSW,202,2.0,6.0,72,0.00,,,0.00,,2013-07-14 14:11:00,
2013-07-14 10:23:00,82.0,71.0,30.33,SSW,196,4.0,7.0,70,0.00,,,0.00,,2013-07-14 14:23:00,
2013-07-14 10:33:00,82.0,72.0,30.33,SSW,202,4.0,8.0,71,0.00,,,0.00,,2013-07-14 14:33:00,
2013-07-14 10:43:00,82.0,70.0,30.33,SSW,202,6.0,10.0,68,0.00,,,0.00,,2013-07-14 14:43:00,
2013-07-14 10:53:00,83.0,71.0,30.33,SSW,210,6.0,10.0,68,0.00,,,0.00,,2013-07-14 14:53:00,
2013-07-14 11:01:00,83.0,71.0,30.32,SSW,200,6.0,9.0,67,0.00,,,0.00,,2013-07-14 15:01:00,
2013-07-14 11:12:00,82.0,70.0,30.33,SSW,195,5.0,7.0,67,0.00,,,0.00,,2013-07-14 15:12:00,
2013-07-14 11:22:00,83.0,71.0,30.33,SSW,204,4.0,7.0,67,0.00,,,0.00,,2013-07-14 15:22:00,
2013-07-14 11:32:00,83.0,71.0,30.33,SW,219,4.0,8.0,68,0.00,,,0.00,,2013-07-14 15:32:00,
2013-07-14 11:42:00,83.0,70.0,30.33,SW,215,6.0,10.0,65,0.00,,,0.00,,2013-07-14 15:42:00,
2013-07-14 11:53:00,83.0,70.0,30.33,SW,215,7.0,11.0,65,0.00,,,0.00,,2013-07-14 15:53:00,
2013-07-14 12:01:00,83.0,70.0,30.33,SSW,207,5.0,12.0,64,0.00,,,0.00,,2013-07-14 16:01:00,
2013-07-14 12:11:00,82.0,70.0,30.34,SSW,209,3.0,7.0,67,0.00,,,0.00,,2013-07-14 16:11:00,
2013-07-14 12:22:00,84.0,71.0,30.33,SSE,152,3.0,10.0,66,0.00,,,0.00,,2013-07-14 16:22:00,
2013-07-14 12:32:00,85.0,71.0,30.33,SSW,211,5.0,9.0,63,0.00,,,0.00,,2013-07-14 16:32:00,
2013-07-14 12:43:00,85.0,71.0,30.33,SSW,196,3.0,8.0,64,0.00,,,0.00,,2013-07-14 16:43:00,
2013-07-14 12:53:00,85.0,70.0,30.32,South,185,5.0,8.0,60,0.00,,,0.00,,2013-07-14 16:53:00,
2013-07-14 13:02:00,86.0,71.0,30.32,SSW,207,5.0,9.0,62,0.00,,,0.00,,2013-07-14 17:02:00,
2013-07-14 13:11:00,86.0,70.0,30.32,South,178,5.0,10.0,60,0.00,,,0.00,,2013-07-14 17:11:00,
2013-07-14 13:22:00,87.0,72.0,30.32,SSW,209,5.0,10.0,61,0.00,,,0.00,,2013-07-14 17:22:00,
2013-07-14 13:32:00,87.0,71.0,30.32,South,190,4.0,10.0,59,0.00,,,0.00,,2013-07-14 17:32:00,
2013-07-14 13:43:00,87.0,71.0,30.32,SSW,194,3.0,11.0,59,0.00,,,0.00,,2013-07-14 17:43:00,
2013-07-14 13:53:00,87.0,70.0,30.32,SSW,212,7.0,10.0,57,0.00,,,0.00,,2013-07-14 17:53:00,
2013-07-14 14:01:00,86.0,70.0,30.32,SSW,202,7.0,11.0,60,0.00,,,0.00,,2013-07-14 18:01:00,
2013-07-14 14:11:00,87.0,70.0,30.31,SW,219,5.0,10.0,57,0.00,,,0.00,,2013-07-14 18:11:00,
2013-07-14 14:22:00,87.0,70.0,30.31,SSW,207,5.0,9.0,58,0.00,,,0.00,,2013-07-14 18:22:00,
2013-07-14 14:32:00,88.0,71.0,30.30,SW,220,5.0,12.0,58,0.00,,,0.00,,2013-07-14 18:32:00,
2013-07-14 14:42:00,88.0,70.0,30.30,SSW,213,6.0,11.0,56,0.00,,,0.00,,2013-07-14 18:42:00,
2013-07-14 14:52:00,88.0,71.0,30.30,SW,215,8.0,12.0,58,0.00,,,0.00,,2013-07-14 18:52:00,
2013-07-14 15:02:00,87.0,69.0,30.29,SW,220,6.0,9.0,55,0.00,,,0.00,,2013-07-14 19:02:00,
2013-07-14 15:22:00,88.0,71.0,30.29,SSW,201,4.0,8.0,57,0.00,,,0.00,,2013-07-14 19:22:00,
2013-07-14 15:32:00,88.0,71.0,30.29,SW,215,5.0,9.0,57,0.00,,,0.00,,2013-07-14 19:32:00,
2013-07-14 15:43:00,87.0,70.0,30.29,SW,221,4.0,9.0,57,0.00,,,0.00,,2013-07-14 19:43:00,
2013-07-14 15:53:00,88.0,72.0,30.28,SW,216,4.0,8.0,59,0.00,,,0.00,,2013-07-14 19:53:00,
2013-07-14 16:02:00,88.0,69.0,30.28,SSW,208,5.0,10.0,54,0.00,,,0.00,,2013-07-14 20:02:00,
2013-07-14 16:11:00,88.0,71.0,30.28,SSW,210,5.0,7.0,57,0.00,,,0.00,,2013-07-14 20:11:00,
2013-07-14 16:22:00,88.0,71.0,30.28,SSW,205,4.0,9.0,58,0.00,,,0.00,,2013-07-14 20:22:00,
2013-07-14 16:32:00,88.0,71.0,30.28,WSW,243,3.0,8.0,57,0.00,,,0.00,,2013-07-14 20:32:00,
2013-07-14 16:43:00,89.0,71.0,30.28,SSW,211,3.0,9.0,56,0.00,,,0.00,,2013-07-14 20:43:00,
2013-07-14 16:53:00,89.0,71.0,30.28,SW,222,3.0,6.0,56,0.00,,,0.00,,2013-07-14 20:53:00,
2013-07-14 17:02:00,89.0,70.0,30.28,SW,221,6.0,10.0,53,0.00,,,0.00,,2013-07-14 21:02:00,
2013-07-14 17:11:00,89.0,72.0,30.27,SW,215,4.0,7.0,57,0.00,,,0.00,,2013-07-14 21:11:00,
2013-07-14 17:22:00,89.0,70.0,30.27,SSW,209,3.0,7.0,53,0.00,,,0.00,,2013-07-14 21:22:00,
2013-07-14 17:32:00,89.0,70.0,30.28,SSW,213,3.0,10.0,54,0.00,,,0.00,,2013-07-14 21:32:00,
2013-07-14 17:43:00,89.0,71.0,30.27,WSW,257,2.0,6.0,55,0.00,,,0.00,,2013-07-14 21:43:00,
2013-07-14 17:52:00,89.0,70.0,30.27,SSW,211,3.0,8.0,54,0.00,,,0.00,,2013-07-14 21:52:00,
2013-07-14 18:01:00,89.0,69.0,30.27,SW,216,3.0,7.0,52,0.00,,,0.00,,2013-07-14 22:01:00,
2013-07-14 18:22:00,88.0,69.0,30.27,SW,215,3.0,8.0,54,0.00,,,0.00,,2013-07-14 22:22:00,
2013-07-14 18:32:00,89.0,71.0,30.27,SW,229,1.0,5.0,55,0.00,,,0.00,,2013-07-14 22:32:00,
2013-07-14 18:42:00,88.0,69.0,30.27,SSW,194,2.0,5.0,54,0.00,,,0.00,,2013-07-14 22:42:00,
2013-07-14 18:53:00,89.0,70.0,30.26,SSW,208,3.0,6.0,53,0.00,,,0.00,,2013-07-14 22:53:00,
2013-07-14 19:01:00,88.0,70.0,30.27,SSW,208,2.0,7.0,55,0.00,,,0.00,,2013-07-14 23:01:00,
2013-07-14 19:11:00,88.0,70.0,30.27,SSW,205,2.0,7.0,55,0.00,,,0.00,,2013-07-14 23:11:00,
2013-07-14 19:22:00,87.0,69.0,30.26,SW,215,3.0,6.0,56,0.00,,,0.00,,2013-07-14 23:22:00,
2013-07-14 19:32:00,87.0,69.0,30.27,SSW,209,4.0,6.0,56,0.00,,,0.00,,2013-07-14 23:32:00,
2013-07-14 19:42:00,87.0,69.0,30.26,SSW,207,4.0,6.0,56,0.00,,,0.00,,2013-07-14 23:42:00,
2013-07-14 19:53:00,87.0,70.0,30.26,SSW,208,3.0,6.0,57,0.00,,,0.00,,2013-07-14 23:53:00,
2013-07-14 20:02:00,86.0,70.0,30.26,SSW,197,1.0,5.0,59,0.00,,,0.00,,2013-07-15 00:02:00,
2013-07-14 20:11:00,86.0,70.0,30.27,SSW,197,1.0,4.0,59,0.00,,,0.00,,2013-07-15 00:11:00,
2013-07-14 20:22:00,85.0,69.0,30.26,SSW,198,2.0,4.0,59,0.00,,,0.00,,2013-07-15 00:22:00,
2013-07-14 20:32:00,85.0,69.0,30.27,SSW,197,1.0,4.0,59,0.00,,,0.00,,2013-07-15 00:32:00,
2013-07-14 20:43:00,85.0,70.0,30.27,SSW,197,2.0,3.0,60,0.00,,,0.00,,2013-07-15 00:43:00,
2013-07-14 20:53:00,84.0,69.0,30.27,SE,141,1.0,4.0,61,0.00,,,0.00,,2013-07-15 00:53:00,
2013-07-14 21:01:00,84.0,70.0,30.27,SE,142,2.0,3.0,62,0.00,,,0.00,,2013-07-15 01:01:00,
2013-07-14 21:11:00,83.0,69.0,30.27,SE,142,1.0,3.0,63,0.00,,,0.00,,2013-07-15 01:11:00,
2013-07-14 21:22:00,83.0,70.0,30.27,SE,142,0.0,3.0,64,0.00,,,0.00,,2013-07-15 01:22:00,
2013-07-14 21:32:00,82.0,69.0,30.27,SE,142,0.0,2.0,65,0.00,,,0.00,,2013-07-15 01:32:00,
2013-07-14 21:43:00,82.0,69.0,30.27,SE,142,0.0,1.0,66,0.00,,,0.00,,2013-07-15 01:43:00,
2013-07-14 21:53:00,81.0,69.0,30.27,SE,142,0.0,0.0,67,0.00,,,0.00,,2013-07-15 01:53:00,
2013-07-14 22:02:00,81.0,70.0,30.28,SE,142,0.0,1.0,69,0.00,,,0.00,,2013-07-15 02:02:00,
2013-07-14 22:11:00,80.0,69.0,30.28,SE,142,0.0,2.0,69,0.00,,,0.00,,2013-07-15 02:11:00,
2013-07-14 22:22:00,80.0,69.0,30.28,SE,142,0.0,1.0,70,0.00,,,0.00,,2013-07-15 02:22:00,
2013-07-14 22:32:00,80.0,69.0,30.28,SE,142,0.0,1.0,70,0.00,,,0.00,,2013-07-15 02:32:00,
2013-07-14 22:42:00,80.0,70.0,30.28,SE,142,0.0,1.0,71,0.00,,,0.00,,2013-07-15 02:42:00,
2013-07-14 22:53:00,80.0,70.0,30.28,SE,142,0.0,1.0,71,0.00,,,0.00,,2013-07-15 02:53:00,
2013-07-14 23:02:00,79.0,69.0,30.28,SE,142,0.0,1.0,71,0.00,,,0.00,,2013-07-15 03:02:00,
2013-07-14 23:11:00,79.0,69.0,30.28,SE,142,0.0,2.0,71,0.00,,,0.00,,2013-07-15 03:11:00,
2013-07-14 23:22:00,79.0,69.0,30.28,SE,142,0.0,1.0,72,0.00,,,0.00,,2013-07-15 03:22:00,
2013-07-14 23:32:00,78.0,68.0,30.28,SE,142,0.0,1.0,72,0.00,,,0.00,,2013-07-15 03:32:00,
2013-07-14 23:43:00,78.0,69.0,30.28,SE,142,1.0,3.0,73,0.00,,,0.00,,2013-07-15 03:43:00,
2013-07-14 23:53:00,78.0,69.0,30.28,SE,144,1.0,3.0,73,0.00,,,0.00,,2013-07-15 03:53:00,